302P/Lemmon-PanSTARRS (2025)

Japanese version
Home page
Updated on November 3, 2020

---------------------------------------------------------------------

* Profile

* Orbital Elements

Epoch 2025 Mar. 26.0 TT = JDT 2460760.5                                         
T 2025 Mar.  9.42089 TT                                 Rudenko                 
q   3.2886283            (2000.0)            P               Q                  
n   0.11179578     Peri.  208.63030     +0.86675639     +0.49064517             
a   4.2676203      Node   121.71418     -0.43519593     +0.83167092             
e   0.2294000      Incl.    6.03563     -0.24359363     +0.25998231             
P   8.82                                                                        
From 142 observations 2007 Aug. 16-2020 Feb. 25, mean residual 0".5.            

* Magnitudes Graph

        m1 = 10.7 + 5 log d + 10.0 log r(t - 450)

---------------------------------------------------------------------

The orbital elements are published on M.P.E.C. 2020-H235.
The magnitudes graphs are made with Comet for Windows.

---------------------------------------------------------------------

Copyright(C) Seiichi Yoshida (comet@aerith.net). All rights reserved.